Tracking 18984 objects as of 24-Feb-2018
HD Live streaming from Space Station
objects crossing your sky now

FENGYUN 1C DEB

Track FENGYUN 1C DEB now!
10-day predictions


NORAD ID: 38718
Int'l Code: 1999-025ETK
Perigee: 823.8 km
Apogee: 1,139.0 km
Inclination: 98.6 °
Period: 104.6 minutes
Semi major axis: 7352 km
RCS: 0.0107 m2 (small)
Launch date: May 10, 1999
Source: People's Republic of China (PRC)
Launch site: Taiyaun Space Center, China (TSC)

Note: This is SATELLITE DEBRIS
aabbcc
Your satellite tracking list
Your tracking list is empty




NASA's NSSDC Master Catalog

Two Line Element Set (TLE):
1 38718U 99025ETK 18038.81214604 +.00000631 +00000-0 +56972-3 0  9990
2 38718 098.6069 052.5716 0214330 122.1923 240.0212 13.77082508494285
Source of the keplerian elements: AFSPC